When you browse on this site, cookies collect data to enhance your experience and personalize the content and advertising you see.
Visit our Privacy Policy to learn more. By continuing to use the site, you agree to this use of cookies and data.
  • In Hungary
  • List of Countries
  • For 7 days
  • Water Temperature
  • Satellite Maps
  • Weather Map
  • News
  • Weather Widgets
  • user-avatar
    Login

    Hourly Weather Liwonde

    Today, 23 January, Wednesday

    Time Temperature Precipitation Wind Pressure Humidity
    00:00 +23°C° 2.2 mm 1 mps 716 mmHg 95%
    01:00 +23°C° 2.2 mm 1 mps 716 mmHg 96%
    02:00 +23°C° 2.2 mm 1 mps 716 mmHg 97%
    03:00 +23°C° 0.6 mm 1 mps 716 mmHg 97%
    04:00 +23°C° 0.6 mm 1 mps 716 mmHg 96%
    05:00 +23°C° 0.6 mm 1 mps 716 mmHg 96%
    06:00 +24°C° 0.1 mm 1 mps 716 mmHg 92%
    07:00 +25°C° 0.1 mm 1 mps 716 mmHg 89%
    08:00 +26°C° 0.1 mm 1 mps 717 mmHg 85%
    09:00 +27°C° 0.3 mm 2 mps 717 mmHg 80%
    10:00 +29°C° 0.3 mm 2 mps 717 mmHg 74%
    11:00 +30°C° 0.3 mm 2 mps 717 mmHg 69%
    12:00 +31°C° 0.5 mm 2 mps 716 mmHg 67%
    13:00 +31°C° 0.5 mm 2 mps 716 mmHg 65%
    14:00 +32°C° 0.5 mm 2 mps 715 mmHg 62%
    15:00 +31°C° 0.3 mm 2 mps 715 mmHg 66%
    16:00 +30°C° 0.3 mm 2 mps 715 mmHg 70%
    17:00 +30°C° 0.3 mm 1 mps 715 mmHg 73%
    18:00 +28°C° 0 mm 1 mps 715 mmHg 79%
    19:00 +26°C° 0 mm 1 mps 715 mmHg 84%
    20:00 +25°C° 0 mm 1 mps 716 mmHg 90%
    21:00 +24°C° 0.1 mm 1 mps 716 mmHg 91%
    22:00 +24°C° 0.1 mm 1 mps 716 mmHg 92%
    23:00 +24°C° 0.1 mm 1 mps 717 mmHg 92%

    Tomorrow, 24 January, Thursday

    Time Temperature Precipitation Wind Pressure Humidity
    00:00 +22°C° 0.5 mm 0 mps 716 mmHg 93%
    01:00 +21°C° 0.5 mm 0 mps 716 mmHg 93%
    02:00 +21°C° 0.5 mm 0 mps 716 mmHg 93%
    03:00 +21°C° 0.4 mm 0 mps 716 mmHg 94%
    04:00 +21°C° 0.4 mm 0 mps 716 mmHg 94%
    05:00 +21°C° 0.4 mm 0 mps 716 mmHg 94%
    06:00 +22°C° 0.2 mm 0 mps 716 mmHg 90%
    07:00 +24°C° 0.2 mm 0 mps 717 mmHg 86%
    08:00 +25°C° 0.2 mm 0 mps 717 mmHg 81%
    09:00 +29°C° 0.9 mm 1 mps 717 mmHg 78%
    10:00 +30°C° 0.9 mm 1 mps 717 mmHg 75%
    11:00 +31°C° 0.9 mm 2 mps 717 mmHg 72%
    12:00 +31°C° 1.1 mm 2 mps 716 mmHg 69%
    13:00 +32°C° 1.1 mm 2 mps 716 mmHg 66%
    14:00 +34°C° 1.1 mm 2 mps 716 mmHg 63%
    15:00 +31°C° 2.3 mm 1 mps 715 mmHg 72%
    16:00 +30°C° 2.3 mm 1 mps 715 mmHg 80%
    17:00 +28°C° 2.3 mm 1 mps 715 mmHg 88%
    18:00 +27°C° 1.2 mm 1 mps 716 mmHg 89%
    19:00 +26°C° 1.2 mm 1 mps 716 mmHg 90%
    20:00 +25°C° 1.2 mm 1 mps 717 mmHg 91%
    21:00 +25°C° 0.2 mm 1 mps 717 mmHg 92%
    22:00 +23°C° 0.2 mm 0 mps 717 mmHg 92%
    23:00 +23°C° 0.2 mm 0 mps 718 mmHg 93%

    Day after tomorrow, 25 January, Friday

    Time Temperature Precipitation Wind Pressure Humidity
    00:00 +22°C° 0.3 mm 0 mps 717 mmHg 93%
    01:00 +22°C° 0.3 mm 0 mps 717 mmHg 93%
    02:00 +22°C° 0.3 mm 0 mps 716 mmHg 94%
    03:00 +22°C° 0.3 mm 0 mps 717 mmHg 94%
    04:00 +22°C° 0.3 mm 0 mps 717 mmHg 94%
    05:00 +22°C° 0.3 mm 0 mps 717 mmHg 94%
    06:00 +22°C° 0.3 mm 0 mps 718 mmHg 93%
    07:00 +23°C° 0.3 mm 0 mps 718 mmHg 93%
    08:00 +23°C° 0.3 mm 0 mps 719 mmHg 92%
    09:00 +26°C° 0.2 mm 1 mps 719 mmHg 86%
    10:00 +27°C° 0.2 mm 1 mps 719 mmHg 81%
    11:00 +28°C° 0.2 mm 1 mps 719 mmHg 76%
    12:00 +27°C° 0.3 mm 1 mps 718 mmHg 78%
    13:00 +27°C° 0.3 mm 1 mps 717 mmHg 80%
    14:00 +27°C° 0.3 mm 1 mps 717 mmHg 82%
    15:00 +26°C° 0.1 mm 1 mps 716 mmHg 83%
    16:00 +26°C° 0.1 mm 1 mps 716 mmHg 85%
    17:00 +25°C° 0.1 mm 1 mps 716 mmHg 86%
    18:00 +23°C° 0 mm 0 mps 717 mmHg 86%
    19:00 +22°C° 0 mm 0 mps 717 mmHg 87%
    20:00 +22°C° 0 mm 0 mps 718 mmHg 87%
    21:00 +22°C° 0.1 mm 0 mps 718 mmHg 87%
    22:00 +22°C° 0.1 mm 0 mps 718 mmHg 87%
    23:00 +21°C° 0.1 mm 0 mps 719 mmHg 88%

    26 January, Saturday

    Time Temperature Precipitation Wind Pressure Humidity
    00:00 +21°C° 0.1 mm 0 mps 718 mmHg 89%
    01:00 +21°C° 0.1 mm 0 mps 718 mmHg 90%
    02:00 +21°C° 0.1 mm 0 mps 717 mmHg 92%
    03:00 +21°C° 0.1 mm 0 mps 717 mmHg 92%
    04:00 +21°C° 0.1 mm 0 mps 718 mmHg 92%
    05:00 +21°C° 0.1 mm 0 mps 718 mmHg 92%
    06:00 +22°C° 0.1 mm 0 mps 719 mmHg 88%
    07:00 +23°C° 0.1 mm 0 mps 719 mmHg 85%
    08:00 +24°C° 0.1 mm 0 mps 720 mmHg 82%
    09:00 +25°C° 0.4 mm 0 mps 719 mmHg 77%
    10:00 +27°C° 0.4 mm 0 mps 719 mmHg 72%
    11:00 +30°C° 0.4 mm 1 mps 719 mmHg 68%
    12:00 +30°C° 0.3 mm 1 mps 719 mmHg 67%
    13:00 +29°C° 0.3 mm 1 mps 718 mmHg 67%
    14:00 +29°C° 0.3 mm 1 mps 717 mmHg 67%
    15:00 +29°C° 0.2 mm 1 mps 717 mmHg 67%
    16:00 +30°C° 0.2 mm 1 mps 717 mmHg 68%
    17:00 +28°C° 0.2 mm 0 mps 717 mmHg 69%
    18:00 +26°C° 0.2 mm 0 mps 718 mmHg 72%
    19:00 +25°C° 0.2 mm 0 mps 718 mmHg 76%
    20:00 +23°C° 0.2 mm 0 mps 718 mmHg 80%
    21:00 +23°C° 0.2 mm 0 mps 718 mmHg 82%
    22:00 +23°C° 0.2 mm 0 mps 719 mmHg 84%
    23:00 +22°C° 0.2 mm 0 mps 719 mmHg 87%

    27 January, Sunday

    Time Temperature Precipitation Wind Pressure Humidity
    00:00 +22°C° 0 mm 0 mps 718 mmHg 88%
    01:00 +22°C° 0 mm 0 mps 718 mmHg 90%
    02:00 +21°C° 0 mm 0 mps 717 mmHg 91%
    03:00 +21°C° 0 mm 0 mps 717 mmHg 92%
    04:00 +21°C° 0 mm 0 mps 718 mmHg 93%
    05:00 +21°C° 0 mm 0 mps 718 mmHg 93%
    06:00 +23°C° 0 mm 0 mps 719 mmHg 87%
    07:00 +24°C° 0 mm 0 mps 719 mmHg 81%
    08:00 +28°C° 0 mm 1 mps 720 mmHg 76%
    09:00 +30°C° 0 mm 1 mps 719 mmHg 68%
    10:00 +32°C° 0 mm 1 mps 719 mmHg 61%
    11:00 +34°C° 0 mm 1 mps 719 mmHg 54%
    12:00 +35°C° 0 mm 1 mps 718 mmHg 51%
    13:00 +35°C° 0 mm 1 mps 717 mmHg 49%
    14:00 +35°C° 0 mm 1 mps 717 mmHg 46%
    15:00 +34°C° 0.1 mm 1 mps 716 mmHg 49%
    16:00 +34°C° 0.1 mm 1 mps 716 mmHg 52%
    17:00 +33°C° 0.1 mm 1 mps 716 mmHg 55%
    18:00 +31°C° 0.2 mm 1 mps 717 mmHg 61%
    19:00 +29°C° 0.2 mm 1 mps 717 mmHg 67%
    20:00 +27°C° 0.2 mm 1 mps 718 mmHg 72%
    21:00 +26°C° 0.2 mm 1 mps 718 mmHg 77%
    22:00 +26°C° 0.2 mm 1 mps 718 mmHg 83%
    23:00 +25°C° 0.2 mm 1 mps 719 mmHg 88%

    28 January, Monday

    Time Temperature Precipitation Wind Pressure Humidity
    00:00 +24°C° 0.2 mm 1 mps 718 mmHg 90%
    01:00 +24°C° 0.2 mm 1 mps 718 mmHg 92%
    02:00 +22°C° 0.2 mm 0 mps 718 mmHg 95%
    03:00 +21°C° 0.2 mm 0 mps 718 mmHg 95%
    04:00 +21°C° 0.2 mm 0 mps 718 mmHg 96%
    05:00 +21°C° 0.2 mm 0 mps 719 mmHg 97%
    06:00 +23°C° 0.2 mm 0 mps 719 mmHg 90%
    07:00 +25°C° 0.2 mm 0 mps 720 mmHg 83%
    08:00 +26°C° 0.2 mm 0 mps 720 mmHg 76%
    09:00 +30°C° 0.3 mm 1 mps 720 mmHg 69%
    10:00 +32°C° 0.3 mm 1 mps 720 mmHg 62%
    11:00 +34°C° 0.3 mm 1 mps 719 mmHg 56%
    12:00 +34°C° 0.5 mm 1 mps 718 mmHg 54%
    13:00 +34°C° 0.5 mm 1 mps 718 mmHg 52%
    14:00 +36°C° 0.5 mm 2 mps 717 mmHg 50%
    15:00 +35°C° 0.3 mm 2 mps 717 mmHg 53%
    16:00 +34°C° 0.3 mm 2 mps 716 mmHg 56%
    17:00 +32°C° 0.3 mm 2 mps 716 mmHg 60%
    18:00 +30°C° 0.7 mm 1 mps 717 mmHg 67%
    19:00 +28°C° 0.7 mm 1 mps 717 mmHg 75%
    20:00 +26°C° 0.7 mm 1 mps 718 mmHg 82%
    21:00 +25°C° 0.7 mm 1 mps 718 mmHg 85%
    22:00 +25°C° 0.7 mm 1 mps 719 mmHg 88%
    23:00 +24°C° 0.7 mm 1 mps 719 mmHg 91%
    Show more